Вернуться в каталог

ARIANE 44LP R/B

АктивенHEO
NORAD 20170·ROCKET BODY·🇫🇷 France

Запущен Aug 8, 1989 с Guiana Space Centre

Loading…

Ближайшие Пролёты (ближайшие 24 часа)

TLE

СвежийSource: Space-Track

Эпоха: Sep 14, 2026, 14:02 UTC

1 20170U 89062C   26257.58520100  .00000992  00000-0  17055-2 0  9998
2 20170   7.3693  78.9148 7059646  75.8368 348.0654  2.49824586317268

Отслеживайте ARIANE 44LP R/B в реальном времени с AllMySat

Download on the App Store